DateTimeUTC,F1_A11,F1_S11,BsB_S11,BsG_S11,BsR_S11,BbsB_S11,BbsG_S11,BbsR_S11,BaB_A11,BaG_A11,BaR_A11,Tu_S11,T_S11,Uu_S11,U_S11,P_S11,T1_A11
2021-10-13T03:00:00Z,00000200,21000000,,,,,,,0000.35,0000.22,-000.03,16.8,24.2,,00.0,0670.2,30.9
2021-10-13T03:01:00Z,00000200,21000000,,,,,,,-000.14,0000.00,-000.19,16.8,24.2,,00.0,0670.2,30.9
2021-10-13T03:02:00Z,00000200,21000000,,,,,,,-000.02,0000.12,0000.38,16.8,24.2,,00.0,0670.2,30.9
2021-10-13T03:03:00Z,00000200,61000000,,,,,,,0000.61,0000.56,0000.32,16.8,24.3,,00.0,0670.2,31.0
2021-10-13T03:04:00Z,00000200,41000000,0006.04,0003.48,0001.53,0001.30,0000.56,0000.51,0001.11,0000.49,0000.22,17.3,24.1,,00.0,0671.1,31.0
2021-10-13T03:05:00Z,00000200,01000000,0006.65,0004.37,0002.42,0000.63,0000.86,0000.50,0000.58,0000.77,0000.55,17.4,24.1,,00.0,0671.2,31.0
2021-10-13T03:06:00Z,00000200,01000000,0007.03,0004.02,0002.13,0001.35,0000.65,0000.82,0000.84,0000.79,0000.79,17.4,24.1,,00.0,0671.2,31.0
2021-10-13T03:07:00Z,00000200,01000000,0006.60,0004.19,0001.80,0000.56,0000.98,0000.41,0000.76,0000.53,0000.04,17.4,24.1,,00.0,0671.2,31.0
2021-10-13T03:08:00Z,00000200,01000000,0005.34,0003.45,0001.61,0000.62,0000.58,0000.47,0000.69,0000.59,0000.82,17.3,24.1,,00.0,0671.2,31.0
2021-10-13T03:09:00Z,00000200,01000000,0005.41,0003.40,0001.72,0000.34,0000.62,0000.39,0000.46,0000.52,-000.37,17.3,24.1,,00.0,0671.1,30.9
2021-10-13T03:10:00Z,00000200,01000000,0007.55,0004.35,0002.43,0000.76,0000.97,0000.61,0001.33,0000.63,0001.02,17.2,24.0,,00.0,0671.2,30.9
2021-10-13T03:11:00Z,00000200,01000000,0006.89,0004.49,0002.40,0000.67,0000.83,0000.49,0000.75,0001.07,0000.40,17.1,24.0,,00.0,0671.1,30.9
2021-10-13T03:12:00Z,00000200,01000000,0006.80,0004.31,0002.51,0001.10,0000.91,0000.39,0001.16,0001.16,0000.83,17.1,23.9,,00.0,0671.2,30.9
2021-10-13T03:13:00Z,00000200,01000000,0006.47,0004.68,0002.29,0000.61,0000.53,0000.43,0001.16,0001.03,0000.54,17.1,23.9,,00.0,0671.2,30.9
2021-10-13T03:14:00Z,00000200,01000000,0007.62,0004.53,0002.35,0000.90,0000.89,0000.28,0000.99,0000.72,0001.09,17.1,23.9,,00.0,0671.2,30.9
2021-10-13T03:15:00Z,00000200,01000000,0005.86,0003.80,0002.24,0000.46,0000.77,0000.54,0001.04,0001.00,0000.45,17.2,23.9,,00.0,0671.2,30.9
2021-10-13T03:16:00Z,00000200,01000000,0006.67,0004.61,0002.30,0001.17,0000.92,0000.58,0001.28,0000.89,0000.79,17.2,24.0,,00.0,0671.3,30.9
2021-10-13T03:17:00Z,00000200,01000000,0006.31,0003.95,0001.82,0000.94,0000.97,0000.37,0000.84,0000.92,0000.68,17.3,24.0,,00.0,0671.3,31.0
2021-10-13T03:18:00Z,00000200,01000000,0007.21,0003.92,0002.22,0001.00,0000.69,0000.56,0001.10,0000.96,0000.57,17.3,24.0,,00.0,0671.3,31.0
2021-10-13T03:19:00Z,00000200,01000000,0006.06,0004.68,0002.22,0001.56,0000.77,0000.34,0000.58,0000.76,0000.16,17.4,24.0,,00.0,0671.3,31.0
2021-10-13T03:20:00Z,00000200,01000000,0007.51,0004.04,0002.14,0001.10,0000.91,0000.52,0000.92,0000.46,0001.04,17.5,24.1,,00.0,0671.3,31.0
2021-10-13T03:21:00Z,00000200,01000000,0006.32,0003.63,0002.16,0001.50,0001.04,0000.60,0000.95,0000.93,0000.19,17.5,24.1,,00.0,0671.3,31.0
2021-10-13T03:22:00Z,00000200,01000000,0005.74,0004.23,0002.31,0001.42,0000.45,0000.59,0000.62,0000.53,0000.24,17.5,24.1,,00.0,0671.3,31.0
2021-10-13T03:23:00Z,00000200,01000000,0007.02,0004.44,0002.20,0001.01,0001.01,0000.48,0001.00,0000.88,0000.35,17.5,24.2,,00.0,0671.3,31.0
2021-10-13T03:24:00Z,00000200,01000000,0007.73,0004.63,0002.45,0000.92,0001.00,0000.45,0000.74,0000.42,0000.51,17.4,24.1,,00.0,0671.2,31.0
2021-10-13T03:25:00Z,00000200,01000000,0007.15,0003.97,0002.01,0001.00,0000.59,0000.27,0000.90,0000.52,0000.47,17.3,24.1,,00.0,0671.2,30.9
2021-10-13T03:26:00Z,00000200,01000000,0007.68,0004.34,0002.15,0001.14,0000.90,0000.31,0001.08,0001.13,0000.77,17.3,24.0,,00.0,0671.2,30.9
2021-10-13T03:27:00Z,00000200,01000000,0008.25,0005.04,0002.55,0001.49,0000.70,0000.57,0001.17,0001.01,0000.76,17.2,24.0,,00.0,0671.2,30.9
2021-10-13T03:28:00Z,00000200,01000000,0007.39,0004.60,0002.70,0001.88,0000.69,0000.49,0001.48,0001.32,0000.69,17.2,24.0,,00.0,0671.2,30.9
2021-10-13T03:29:00Z,00000200,01000000,0007.28,0004.54,0002.34,0001.81,0000.73,0000.66,0000.97,0000.90,0000.66,17.2,24.0,,00.0,0671.2,30.9
2021-10-13T03:30:00Z,00000200,01000000,0007.84,0004.81,0002.54,0001.16,0000.87,0000.89,0000.71,0000.88,0001.04,17.3,24.0,,00.0,0671.2,30.9
2021-10-13T03:31:00Z,00000200,01000000,0008.03,0005.22,0002.80,0001.18,0001.20,0000.49,0001.23,0001.23,0000.92,17.3,24.0,,00.0,0671.2,31.0
2021-10-13T03:32:00Z,00000200,01000000,0007.88,0005.16,0002.83,0000.97,0000.91,0000.53,0001.38,0000.87,0000.60,17.4,24.0,,00.0,0671.2,31.0
2021-10-13T03:33:00Z,00000200,01000000,0007.43,0004.68,0002.15,0000.98,0000.67,0000.28,0001.35,0001.00,0001.02,17.5,24.1,,00.0,0671.2,31.0
2021-10-13T03:34:00Z,00000200,01000000,0008.24,0004.49,0002.35,0001.38,0000.85,0000.63,0001.06,0001.04,0000.20,17.5,24.1,,00.0,0671.3,31.0
2021-10-13T03:35:00Z,00000200,01000000,0006.87,0004.30,0002.09,0000.98,0000.72,0000.54,0000.71,0000.69,0000.53,17.6,24.1,,00.0,0671.2,31.0
2021-10-13T03:36:00Z,00000200,01000000,0006.45,0003.68,0002.01,0001.42,0000.78,0000.49,0000.49,0000.48,0000.34,17.6,24.2,,00.0,0671.2,31.0
2021-10-13T03:37:00Z,00000200,01000000,0002.80,0001.66,0000.86,0000.59,0000.40,0000.36,0000.17,-000.01,0000.02,17.6,24.2,,00.0,0671.2,31.0
2021-10-13T03:38:00Z,00000200,01000000,0003.06,0002.02,0000.99,0000.54,0000.36,0000.23,0000.68,0000.43,-000.16,17.5,24.2,,00.0,0671.1,31.0
2021-10-13T03:39:00Z,00000200,01000000,0004.21,0002.97,0001.32,0001.13,0000.05,0000.31,0000.45,0000.24,0000.61,17.4,24.1,,00.0,0671.2,31.0
2021-10-13T03:40:00Z,00000200,01000000,0007.52,0003.95,0002.05,0000.88,0000.63,0000.45,0000.55,0000.80,0000.42,17.3,24.1,,00.0,0671.1,30.9
2021-10-13T03:41:00Z,00000200,01000000,0007.30,0003.81,0001.98,0001.15,0000.87,0000.53,0001.22,0000.97,0000.63,17.3,24.1,,00.0,0671.1,30.9
2021-10-13T03:42:00Z,00000200,01000000,0004.83,0003.64,0002.03,0000.86,0000.67,0000.50,0000.51,0000.63,0000.19,17.2,24.0,,00.0,0671.1,30.9
2021-10-13T03:43:00Z,00000200,01000000,0005.96,0003.70,0001.89,0000.81,0000.91,0000.49,0001.35,0001.06,0001.02,17.2,24.0,,00.0,0671.1,30.9
2021-10-13T03:44:00Z,00000200,01000000,0006.05,0003.73,0001.51,0001.17,0000.60,0000.33,0000.70,0000.65,0000.66,17.3,24.0,,00.0,0671.1,30.9
2021-10-13T03:45:00Z,00000200,01000000,0004.60,0003.25,0001.53,0000.60,0000.87,0000.28,0000.85,0000.72,0000.37,17.3,24.0,,00.0,0671.2,30.9
2021-10-13T03:46:00Z,00000200,01000000,0004.92,0003.16,0001.65,0000.54,0000.58,0000.24,0000.67,0000.78,0000.46,17.4,24.0,,00.0,0671.2,31.0
2021-10-13T03:47:00Z,00000200,01000000,0004.93,0003.24,0001.66,0000.78,0000.85,0000.63,0000.82,0000.71,0000.46,17.4,24.1,,00.0,0671.1,31.0
2021-10-13T03:48:00Z,00000200,01000000,0004.24,0002.63,0001.03,0000.66,0000.64,0000.11,0000.59,0000.32,0000.26,17.5,24.1,,00.0,0671.1,31.0
2021-10-13T03:49:00Z,00000200,01000000,0003.74,0002.59,0000.97,0001.30,0000.92,0000.17,0000.44,0000.60,0000.29,17.5,24.1,,00.0,0671.1,31.0
2021-10-13T03:50:00Z,00000200,01000000,0003.85,0002.19,0001.21,0001.02,0000.59,0000.40,0000.45,-000.13,0000.14,17.5,24.1,,00.0,0671.1,31.0
2021-10-13T03:51:00Z,00000200,01000000,0004.15,0002.17,0001.11,-000.00,0000.51,0000.38,0000.40,0000.33,0000.20,17.5,24.1,,00.0,0671.1,31.0
2021-10-13T03:52:00Z,00000200,01000000,0004.53,0002.60,0001.18,0001.03,0000.62,0000.26,0000.55,0000.23,-000.12,17.4,24.1,,00.0,0671.1,30.9
2021-10-13T03:53:00Z,00000200,01000000,0003.34,0002.48,0000.98,0001.04,0000.20,0000.39,0000.15,0000.39,0000.23,17.3,24.0,,00.0,0671.1,30.9
2021-10-13T03:54:00Z,00000200,01000000,0004.29,0002.14,0000.91,0000.69,0000.72,0000.11,0000.54,0000.15,0000.24,17.2,24.0,,00.0,0671.1,30.9
2021-10-13T03:55:00Z,00000200,01000000,0003.68,0002.90,0001.09,0000.20,0000.30,0000.29,0000.38,0000.77,0000.68,17.1,24.0,,00.0,0671.1,30.9
2021-10-13T03:56:00Z,00000200,01000000,0004.49,0002.56,0001.39,0000.10,0000.48,0000.42,0000.69,0000.43,0000.34,17.0,23.9,,00.0,0671.0,30.9
2021-10-13T03:57:00Z,00000200,41000000,,,,,,,0000.37,0000.43,0000.01,17.1,24.0,,00.0,0671.0,30.9
2021-10-13T03:58:00Z,00000200,61000000,,,,,,,0000.29,0000.15,0000.23,16.6,24.1,,00.0,0670.0,30.9
2021-10-13T03:59:00Z,00000200,21000000,,,,,,,-000.35,0000.01,0000.24,16.6,24.2,,00.0,0670.0,30.9
